Terminal Aerodrome Forecast
Issued by NWS

Home | Current Version | Previous Version | Text Only | Print | Product List | Glossary On
Versions: 1 2 3 4 5 6 7 8 9 10 11 12
000
FTUS44 KLZK 202300
TAFLIT
TAF
KLIT 202320Z 2100/2124 VRB03KT P6SM SCT120 SCT250
      TEMPO 2109/2113 4SM BR
     FM211300 VRB05KT P6SM SCT250=

USA.gov is the U.S. government's official web portal to all federal, state and local government web resources and services.